Pocatello, ID

8:32 PM MDT on March 24, 2017 (GMT -0600)
Pocatello Regional

Weather History for KPIH - February, 2012

Change the Weather History Date:

Friday, February 3, 2012

  Actual Average Record
Temperature  
Mean Temperature 32 °F 26 °F  
Max Temperature 41 °F 34 °F 59 °F (1953)
Min Temperature 22 °F 17 °F -23 °F (1979)
Degree Days  
Heating Degree Days 33 39  
Month to date heating degree days 101 119  
Since 1 July heating degree days 4112 4366  
Cooling Degree Days 0 0  
Month to date cooling degree days 0 0  
Year to date cooling degree days 0 0  
Moisture  
Dew Point 23 °F    
Average Humidity 77    
Maximum Humidity 100    
Minimum Humidity 54    
Precipitation  
Precipitation T in 0.03 in 0.30 in (1978)
Month to date precipitation 0.06 0.09  
Year to date precipitation 1.70 1.08  
Snow  
Snow T in - - ()
Month to date snowfall 0.6  
Since 1 July snowfall 8.4  
Snow Depth 0.00 in    
Sea Level Pressure  
Sea Level Pressure 30.35 in    
Wind  
Wind Speed 5 mph (SW)    
Max Wind Speed 15 mph    
Max Gust Speed 18 mph    
Visibility 7 miles    
Events Snow    
T = Trace of Precipitation, MM = Missing Value Source: NWS Daily Summary

Daily Weather History Graph

Daily Weather History Graph

Search for Another Location

Airport or City:

Trip Planner

Search our weather history database for the weather conditions in past years. The results will help you decide how hot, cold, wet, or windy it might be!

Date:

Astronomy

Feb. 03, 2012 Rise Set
Actual Time 7:43 AM MST 5:45 PM MST
Civil Twilight 7:13 AM MST 6:15 PM MST
Nautical Twilight 6:39 AM MST 6:49 PM MST
Astronomical Twilight 6:06 AM MST 7:22 PM MST
Moon 1:46 PM MST (2/3) 4:25 AM MST (2/3)
Length of Visible Light 11h 01m
Length of Day
10h 01m
Waxing Gibbous, 82% of the Moon is Illuminated
Feb 3
Waxing Gibbous
Feb 7
Full
Feb 14
Last Quarter
Feb 21
New
Feb 29
First Quarter

Hourly Weather History & Observations

Time (MST) Temp. Windchill Dew Point Humidity Pressure Visibility Wind Dir Wind Speed Gust Speed Precip Events Conditions
12:53 AM 25.0 °F 17.1 °F 24.1 °F 96% 30.34 in 6.0 mi WSW 6.9 mph - N/A   Overcast
1:13 AM 24.8 °F 15.3 °F 24.8 °F 100% 30.25 in 6.0 mi SW 9.2 mph - N/A   Overcast
1:53 AM 25.0 °F 17.1 °F 24.1 °F 96% 30.35 in 7.0 mi SW 6.9 mph - N/A   Overcast
2:03 AM 24.8 °F 17.9 °F 24.8 °F 100% 30.25 in 8.0 mi SW 5.8 mph - N/A   Overcast
2:53 AM 25.0 °F 20.7 °F 24.1 °F 96% 30.35 in 7.0 mi SW 3.5 mph - N/A   Overcast
3:04 AM 24.8 °F 16.9 °F 23.0 °F 93% 30.26 in 6.0 mi WSW 6.9 mph - N/A   Overcast
3:12 AM 24.8 °F 19.1 °F 23.0 °F 93% 30.26 in 6.0 mi SW 4.6 mph - N/A   Overcast
3:22 AM 24.8 °F 16.9 °F 23.0 °F 93% 30.26 in 7.0 mi SW 6.9 mph - N/A   Overcast
3:33 AM 24.8 °F 15.3 °F 23.0 °F 93% 30.26 in 6.0 mi SW 9.2 mph - N/A   Overcast
3:53 AM 24.1 °F 19.7 °F 21.9 °F 91% 30.36 in 6.0 mi SW 3.5 mph - N/A   Overcast
4:05 AM 23.0 °F 17.0 °F 21.2 °F 93% 30.27 in 6.0 mi SW 4.6 mph - N/A   Overcast
4:45 AM 24.8 °F 19.1 °F 23.0 °F 93% 30.27 in 6.0 mi SSW 4.6 mph - N/A   Overcast
4:53 AM 24.1 °F 19.7 °F 23.0 °F 96% 30.38 in 5.0 mi SW 3.5 mph - N/A   Overcast
5:53 AM 24.1 °F 19.7 °F 23.0 °F 96% 30.39 in 1.0 mi SW 3.5 mph - 0.00 in Snow Light Snow
6:53 AM 24.1 °F - 23.0 °F 96% 30.40 in 1.0 mi Calm Calm - 0.00 in   Mist
7:53 AM 23.0 °F - 21.9 °F 96% 30.41 in 0.8 mi Calm Calm - N/A   Overcast
8:53 AM 24.1 °F - 23.0 °F 96% 30.43 in 0.8 mi Calm Calm - N/A   Overcast
9:53 AM 25.0 °F 20.7 °F 23.0 °F 92% 30.44 in 2.0 mi East 3.5 mph - N/A   Overcast
10:53 AM 25.0 °F 20.7 °F 23.0 °F 92% 30.45 in 3.0 mi East 3.5 mph - N/A   Overcast
11:53 AM 27.0 °F 21.6 °F 23.0 °F 85% 30.45 in 7.0 mi ENE 4.6 mph - N/A   Mostly Cloudy
12:38 PM 28.4 °F 24.6 °F 23.0 °F 80% 30.33 in 10.0 mi East 3.5 mph - N/A   Scattered Clouds
12:53 PM 30.9 °F 27.5 °F 24.1 °F 76% 30.42 in 10.0 mi Variable 3.5 mph - N/A   Scattered Clouds
1:53 PM 35.1 °F 30.1 °F 26.1 °F 70% 30.38 in 10.0 mi ENE 5.8 mph - N/A   Partly Cloudy
2:53 PM 39.0 °F 32.8 °F 26.1 °F 60% 30.36 in 10.0 mi NE 9.2 mph - N/A   Partly Cloudy
3:53 PM 39.9 °F 32.5 °F 25.0 °F 55% 30.36 in 10.0 mi NNE 12.7 mph - N/A   Partly Cloudy
4:53 PM 37.9 °F 31.5 °F 24.1 °F 57% 30.36 in 10.0 mi NNE 9.2 mph - N/A   Partly Cloudy
5:53 PM 33.1 °F 26.1 °F 25.0 °F 72% 30.38 in 10.0 mi NNE 8.1 mph - N/A   Clear
6:53 PM 30.9 °F 25.2 °F 24.1 °F 76% 30.39 in 10.0 mi NE 5.8 mph - N/A   Clear
7:53 PM 28.0 °F 20.0 °F 21.0 °F 75% 30.40 in 10.0 mi NE 8.1 mph - N/A   Clear
8:53 PM 26.1 °F 21.9 °F 19.9 °F 78% 30.42 in 10.0 mi NNW 3.5 mph - N/A   Clear
9:53 PM 26.1 °F - 21.0 °F 81% 30.42 in 10.0 mi Calm Calm - N/A   Clear
10:53 PM 23.0 °F - 18.0 °F 81% 30.43 in 10.0 mi Calm Calm - N/A   Clear
11:53 PM 23.0 °F 17.0 °F 19.0 °F 85% 30.44 in 10.0 mi West 4.6 mph - N/A   Clear